User: anonymous
Location: Lawrence
(38.9720°N, 95.2350°W)
Time: 11:25:01
(UTC-05:00)
Language:

JAS-1B - Orbit

View from above orbital plane
View from above orbital plane
View from above satellite
View from above satellite

Ground track
Ground track

The orbit data is extracted from the following two-line orbital elements,

1 20480U 90013C   14105.91406926  .00000005  00000-0  76549-4 0  7049
2 20480 099.0383 080.7721 0540926 134.8476 285.6215 12.83392420133147
Epoch (UTC): 15 April 2014 21:56:15
Eccentricity: 0.0540926
inclination: 99.0383°
perigee height: 911 km
apogee height: 1744 km
right ascension of ascending node: 80.7721°
argument of perigee: 134.8476°
revolutions per day: 12.83392420
mean anomaly at epoch: 285.6215°
orbit number at epoch: 13314

The dashed part of the orbit path shows where the satellite is in the earth's shadow,  

DLR